Flight Track Log - Related Links

Times and Time Zones

All times are in EDT time to prevent confusion due to time zone crossing. See the JBU263 flight status page for this flight to view local times or setup timezone preferences in your user account.

Time Position Orientation Groundspeed Altitude Reporting Facility
EDT Latitude Longitude Course Direction KTS MPH feet Rate Location/Type
Wed 04:24:14 PM 38.7050 -121.5830 North 25 29  Level FlightAware ADS-B
Wed 04:26:54 PM 38.7010 -121.5800 150° Southeast 100 190 Climbing FlightAware ADS-B
Wed 04:27:23 PM 38.6800 -121.5800 180° South 157 181 600 1,592 Climbing FlightAware ADS-B
Wed 04:27:43 PM 38.6660 -121.5760 167° South 160 184 1,400 1,696 Climbing FlightAware ADS-B
Wed 04:28:09 PM 38.6500 -121.5570 137° Southeast 195 224 1,900 1,111 Climbing FlightAware ADS-B
Wed 04:28:37 PM 38.6340 -121.5280 125° Southeast 241 277 2,400 1,500 Climbing FlightAware ADS-B
Wed 04:28:53 PM 38.6240 -121.5070 121° Southeast 260 299 3,000 3,000 Climbing FlightAware ADS-B
Wed 04:29:21 PM 38.6050 -121.4690 123° Southeast 270 311 4,600 3,536 Climbing FlightAware ADS-B
Wed 04:29:49 PM 38.5870 -121.4310 121° Southeast 274 315 6,300 3,286 Climbing FlightAware ADS-B
Wed 04:30:03 PM 38.5780 -121.4110 120° Southeast 282 325 6,900 2,595 Climbing FlightAware ADS-B
Wed 04:30:26 PM 38.5630 -121.3780 120° Southeast 295 339 7,900 2,615 Climbing FlightAware ADS-B
Wed 04:30:42 PM 38.5560 -121.3630 121° Southeast 290 334 8,600 2,842 Climbing FlightAware ADS-B
Wed 04:31:23 PM 38.5220 -121.2910 121° Southeast 318 366 10,600 2,483 Climbing FlightAware ADS-B
Wed 04:32:09 PM 38.4850 -121.2130 121° Southeast 347 399 12,200 2,286 Climbing FlightAware ADS-B
Wed 04:32:47 PM 38.4530 -121.1440 121° Southeast 358 412 13,800 2,538 Climbing FlightAware ADS-B
Wed 04:33:27 PM 38.4180 -121.0720 122° Southeast 368 423 15,500 2,400 Climbing FlightAware ADS-B
Wed 04:34:12 PM 38.3790 -120.9900 121° Southeast 377 434 17,200 2,345 Climbing FlightAware ADS-B
Wed 04:34:54 PM 38.3390 -120.9060 121° Southeast 383 441 18,900 1,529 Climbing FlightAware ADS-B
Wed 04:35:54 PM 38.2880 -120.8000 121° Southeast 396 456 19,800 1,975 Climbing FlightAware ADS-B
Wed 04:36:13 PM 38.2633 -120.7500 122° Southeast 400 460 21,500 2,593 Climbing FlightAware ADS-B
Wed 04:37:15 PM 38.1880 -120.6440 132° Southeast 404 465 23,300 1,673 Climbing FlightAware ADS-B
Wed 04:37:57 PM 38.1260 -120.5800 141° Southeast 413 475 24,400 1,605 Climbing FlightAware ADS-B
Wed 04:38:41 PM 38.0600 -120.5150 142° Southeast 418 481 25,600 1,731 Climbing FlightAware ADS-B
Wed 04:38:49 PM 38.0452 -120.5000 141° Southeast 418 481 25,900 1,756 Climbing FlightAware ADS-B
Wed 04:39:22 PM 37.9952 -120.4510 142° Southeast 420 483 26,800 1,455 Climbing FlightAware ADS-B
Wed 04:39:55 PM 37.9440 -120.4010 142° Southeast 426 490 27,500 1,313 Climbing FlightAware ADS-B
Wed 04:40:26 PM 37.8956 -120.3530 142° Southeast 431 496 28,200 1,548 Climbing FlightAware ADS-B
Wed 04:40:57 PM 37.8466 -120.3060 143° Southeast 429 494 29,100 1,404 Climbing FlightAware ADS-B
Wed 04:41:13 PM 37.8173 -120.2860 152° Southeast 428 493 29,300 783 Climbing FlightAware ADS-B
Wed 04:41:20 PM 37.8047 -120.2810 163° South 427 491 29,400 1,135 Climbing FlightAware ADS-B
Wed 04:41:50 PM 37.7463 -120.2650 168° South 427 491 30,000 1,385 Climbing FlightAware ADS-B
Wed 04:42:51 PM 37.6320 -120.2360 169° South 422 486 31,500 1,636 Climbing FlightAware ADS-B
Wed 04:43:29 PM 37.5590 -120.2170 168° South 413 475 32,700 1,786 Climbing FlightAware ADS-B
Wed 04:44:15 PM 37.4750 -120.1950 168° South 402 463 34,000 1,500 Climbing FlightAware ADS-B
Wed 04:44:57 PM 37.4000 -120.1760 169° South 394 453 34,900 857 Climbing FlightAware ADS-B
Wed 04:45:25 PM 37.3472 -120.1620 168° South 389 448 35,000 207 Climbing FlightAware ADS-B
Wed 04:45:55 PM 37.2941 -120.1490 169° South 390 449 35,100 590 Climbing FlightAware ADS-B
Wed 04:46:26 PM 37.2398 -120.1350 168° South 391 450 35,600 968 Climbing FlightAware ADS-B
Wed 04:46:57 PM 37.1849 -120.1210 169° South 390 449 36,100 894 Climbing FlightAware ADS-B
Wed 04:48:00 PM 37.0750 -120.0930 169° South 388 447 37,000 524 Climbing FlightAware ADS-B
Wed 04:48:40 PM 37.0030 -120.0750 169° South 397 457 37,000  Level FlightAware ADS-B
Wed 04:49:24 PM 36.9260 -120.0550 168° South 389 448 37,000  Level FlightAware ADS-B
Wed 04:50:06 PM 36.8510 -120.0370 169° South 391 450 37,000  Level FlightAware ADS-B
Wed 04:50:50 PM 36.7730 -120.0170 168° South 393 452 37,000  Level FlightAware ADS-B
Wed 04:51:45 PM 36.6760 -119.9920 168° South 389 448 37,000  Level FlightAware ADS-B
Wed 04:52:26 PM 36.6050 -119.9740 168° South 388 447 37,000  Level FlightAware ADS-B
Wed 04:53:06 PM 36.5360 -119.9570 169° South 387 445 37,000  Level FlightAware ADS-B
Wed 04:53:50 PM 36.4570 -119.9370 168° South 386 444 37,000  Level FlightAware ADS-B
Wed 04:54:28 PM 36.3900 -119.9210 169° South 385 443 37,000  Level FlightAware ADS-B
Wed 04:55:28 PM 36.2820 -119.8940 169° South 385 443 37,000  Level FlightAware ADS-B
Wed 04:56:06 PM 36.2160 -119.8770 168° South 384 442 37,000  Level FlightAware ADS-B
Wed 04:56:50 PM 36.1400 -119.8580 169° South 382 440 37,000  Level FlightAware ADS-B
Wed 04:57:34 PM 36.0640 -119.8390 169° South 381 438 37,000  Level FlightAware ADS-B
Wed 04:58:15 PM 35.9940 -119.8220 169° South 380 437 37,000  Level FlightAware ADS-B
Wed 04:58:46 PM 35.9400 -119.8090 169° South 379 436 37,000  Level FlightAware ADS-B
Wed 04:59:24 PM 35.8740 -119.7920 168° South 380 437 37,000  Level FlightAware ADS-B
Wed 05:00:35 PM 35.7540 -119.7630 169° South 383 441 37,000  Level FlightAware ADS-B
Wed 05:01:12 PM 35.6990 -119.7490 168° South 383 441 37,000  Level FlightAware ADS-B
Wed 05:02:08 PM 35.5890 -119.7220 169° South 387 445 37,000  Level FlightAware ADS-B
Wed 05:02:52 PM 35.5130 -119.7040 169° South 387 445 37,000  Level FlightAware ADS-B
Wed 05:03:32 PM 35.4420 -119.6860 168° South 388 447 37,000  Level FlightAware ADS-B
Wed 05:03:52 PM 35.4070 -119.6690 158° South 404 465 37,000  Level FlightAware ADS-B
Wed 05:04:29 PM 35.3490 -119.6250 148° Southeast 405 466 37,000  Level FlightAware ADS-B
Wed 05:05:08 PM 35.2870 -119.5780 148° Southeast 403 464 37,000  Level FlightAware ADS-B
Wed 05:05:56 PM 35.2100 -119.5200 148° Southeast 402 463 37,000  Level FlightAware ADS-B
Wed 05:06:36 PM 35.1540 -119.4760 147° Southeast 402 463 37,000 -209 Level FlightAware ADS-B
Wed 05:07:22 PM 35.0760 -119.4180 149° Southeast 400 460 36,700 -296 Descending FlightAware ADS-B
Wed 05:07:57 PM 35.0260 -119.3800 148° Southeast 397 457 36,600 -835 Descending FlightAware ADS-B
Wed 05:08:41 PM 34.9710 -119.3390 149° Southeast 396 456 35,600 -1,912 Descending FlightAware ADS-B
Wed 05:09:28 PM 34.8780 -119.2690 148° Southeast 390 449 33,700 -2,329 Descending FlightAware ADS-B
Wed 05:10:06 PM 34.8200 -119.2250 148° Southeast 392 451 32,300 -2,372 Descending FlightAware ADS-B
Wed 05:10:54 PM 34.7440 -119.1690 149° Southeast 394 453 30,300 -1,576 Descending FlightAware ADS-B
Wed 05:11:45 PM 34.7120 -119.1450 148° Southeast 389 448 29,700 -1,800 Descending FlightAware ADS-B
Wed 05:12:34 PM 34.5950 -119.0570 148° Southeast 371 427 27,300 -1,814 Descending FlightAware ADS-B
Wed 05:13:11 PM 34.5500 -119.0230 148° Southeast 369 425 27,100 -1,875 Descending FlightAware ADS-B
Wed 05:13:54 PM 34.4780 -118.9700 149° Southeast 356 410 24,800 -2,109 Descending FlightAware ADS-B
Wed 05:15:56 PM 34.3070 -118.8630 153° Southeast 334 384 21,300 -1,733 Descending FlightAware ADS-B
Wed 05:16:54 PM 34.2220 -118.8310 163° South 328 377 19,600 -1,706 Descending FlightAware ADS-B
Wed 05:17:38 PM 34.1590 -118.8070 163° South 324 373 18,400 -1,650 Descending FlightAware ADS-B
Wed 05:18:14 PM 34.1050 -118.7880 164° South 327 376 17,400 -1,658 Descending FlightAware ADS-B
Wed 05:18:54 PM 34.0480 -118.7670 163° South 319 367 16,300 -1,705 Descending FlightAware ADS-B
Wed 05:19:42 PM 33.9820 -118.7430 163° South 311 358 14,900 -1,548 Descending FlightAware ADS-B
Wed 05:20:27 PM 33.9180 -118.7200 163° South 315 362 13,900 -723 Descending FlightAware ADS-B
Wed 05:21:05 PM 33.8680 -118.7010 162° South 319 367 13,900 77 Level FlightAware ADS-B
Wed 05:21:45 PM 33.8100 -118.6800 163° South 314 361 14,000 -146 Climbing FlightAware ADS-B
Wed 05:22:27 PM 33.7520 -118.6590 163° South 300 345 13,700 -886 Descending FlightAware ADS-B
Wed 05:23:13 PM 33.6920 -118.6380 164° South 287 330 12,700 -1,373 Descending FlightAware ADS-B
Wed 05:23:50 PM 33.6500 -118.6230 163° South 289 333 11,800 -1,643 Descending FlightAware ADS-B
Wed 05:24:37 PM 33.5860 -118.5960 161° South 296 341 10,400 -1,520 Descending FlightAware ADS-B
Wed 05:25:05 PM 33.5540 -118.5680 144° Southeast 287 330 9,900 -1,343 Descending FlightAware ADS-B
Wed 05:25:44 PM 33.5310 -118.5210 120° Southeast 297 342 8,900 -1,522 Descending FlightAware ADS-B
Wed 05:26:12 PM 33.5370 -118.4690 82° East 294 338 8,200 -1,286 Descending FlightAware ADS-B
Wed 05:26:40 PM 33.5420 -118.4270 82° East 288 331 7,700 -971 Descending FlightAware ADS-B
Wed 05:27:20 PM 33.5490 -118.3670 82° East 269 310 7,100 -870 Descending FlightAware ADS-B
Wed 05:27:49 PM 33.5540 -118.3230 82° East 249 287 6,700 -700 Descending FlightAware ADS-B
Wed 05:28:20 PM 33.5590 -118.2850 81° East 236 272 6,400 -800 Descending FlightAware ADS-B
Wed 05:28:49 PM 33.5640 -118.2470 81° East 233 268 5,900 -1,017 Descending FlightAware ADS-B
Wed 05:29:19 PM 33.5690 -118.2070 81° East 229 264 5,400 -964 Descending FlightAware ADS-B
Wed 05:29:45 PM 33.5740 -118.1780 78° East 229 264 5,000 -1,091 Descending FlightAware ADS-B
Wed 05:30:14 PM 33.5880 -118.1440 64° Northeast 229 264 4,400 -1,014 Descending FlightAware ADS-B
Wed 05:30:56 PM 33.6110 -118.0970 60° Northeast 222 255 3,800 -889 Descending FlightAware ADS-B
Wed 05:31:08 PM 33.6180 -118.0860 53° Northeast 224 258 3,600 -900 Descending FlightAware ADS-B
Wed 05:31:36 PM 33.6390 -118.0630 42° Northeast 218 251 3,200 -857 Descending FlightAware ADS-B
Wed 05:32:04 PM 33.6600 -118.0410 41° Northeast 213 245 2,800 -1,000 Descending FlightAware ADS-B
Wed 05:32:36 PM 33.6870 -118.0210 32° Northeast 213 245 2,200 -955 Descending FlightAware ADS-B
Wed 05:32:48 PM 33.6990 -118.0230 352° North 207 238 2,100 -429 Descending FlightAware ADS-B
Wed 05:33:18 PM 33.7230 -118.0370 334° Northwest 185 213 1,900 -436 Descending FlightAware ADS-B
Wed 05:33:43 PM 33.7370 -118.0540 315° West 174 200 1,700 -529 Descending FlightAware ADS-B
Wed 05:33:52 PM 33.7430 -118.0610 316° Northwest 172 198 1,600 -439 Descending FlightAware ADS-B
Wed 05:34:24 PM 33.7590 -118.0810 314° West 154 177 1,400 -610 Descending FlightAware ADS-B
Wed 05:34:51 PM 33.7730 -118.0970 316° Northwest 147 169 1,000 -737 Descending FlightAware ADS-B
Wed 05:35:21 PM 33.7870 -118.1150 313° West 142 163 700 -712 Descending FlightAware ADS-B
Wed 05:35:50 PM 33.8010 -118.1310 316° Northwest 142 163 300 -828 Descending FlightAware ADS-B
Wed 05:36:15 PM 33.8120 -118.1450 313° West 144 166 -720 Descending FlightAware ADS-B
Wed 05:36:41 PM 33.8210 -118.1550 317° Northwest 32 37  Level FlightAware ADS-B
Wed 05:37:07 PM 33.8230 -118.1580 309° West 32 37  Level FlightAware ADS-B
Wed 05:38:45 PM 33.8220 -118.1510 100° East 17 20  Level FlightAware ADS-B
Wed 05:39:49 PM 33.8210 -118.1470 107° East 20 23  Level FlightAware ADS-B

Login

Don't have an account? Register now (free) for customized features, flight alerts, and more!